{"data":{"norad_id":59500,"epoch":"2026-09-21T08:02:52.211328Z","epoch_age_seconds":93412,"freshness":"FRESH","line1":"1 59500U 24071S   26264.33532652  .00001647  00000+0  69368-4 0  9995","line2":"2 59500  43.0027 274.6074 0001478 287.8637  72.2054 15.27582183138585","mean_motion":15.27582183,"eccentricity":0.0001478,"inclination_deg":43.0027,"raan_deg":274.6074,"arg_perigee_deg":287.8637,"mean_anomaly_deg":72.2054,"bstar":6.9368e-5,"rev_number":13858,"period_min":94.266614001219,"perigee_km":482.02847702123,"apogee_km":484.05664169898,"semimajor_km":6861.1795593601,"source":"CELESTRAK","updated_at":"2026-09-22T09:00:48.960173Z"}}